| time (UTC) | temp F | wind direction | speed MPH | gust MPH | rain 1hr in | rain 24hr in | rain mn in | humidity % | barometer mb |
| 20260504231250 | 45 | 213 | 2.0 | 11.0 | 0.00 | 0.00 | 0.00 | 83 | 1011.9 |
| 20260504230750 | 45 | 194 | 1.0 | 11.0 | 0.00 | 0.00 | 0.00 | 83 | 1012.2 |
| 20260504230250 | 45 | 206 | 3.0 | 11.0 | 0.00 | 0.00 | 0.00 | 83 | 1012.0 |
| 20260504225749 | 45 | 209 | 2.0 | 11.0 | 0.00 | 0.00 | 0.00 | 83 | 1011.7 |
| 20260504225248 | 45 | 196 | 2.0 | 11.0 | 0.00 | 0.00 | 0.00 | 83 | 1012.3 |
| 20260504224748 | 45 | 196 | 2.0 | 11.0 | 0.00 | 0.00 | 0.00 | 83 | 1012.0 |
| 20260504224248 | 45 | 178 | 2.0 | 11.0 | 0.00 | 0.00 | 0.00 | 83 | 1012.3 |
| 20260504223748 | 45 | 225 | 1.0 | 11.0 | 0.00 | 0.00 | 0.00 | 83 | 1012.2 |
| 20260504223247 | 45 | 206 | 2.0 | 11.0 | 0.00 | 0.00 | 0.00 | 83 | 1012.1 |
| 20260504222747 | 45 | 227 | 2.0 | 11.0 | 0.00 | 0.00 | 0.00 | 83 | 1012.0 |
| 20260504222247 | 46 | 219 | 2.0 | 11.0 | 0.00 | 0.00 | 0.00 | 83 | 1012.2 |
| 20260504221747 | 46 | 236 | 1.0 | 11.0 | 0.00 | 0.00 | 0.00 | 83 | 1011.9 |
| 20260504221247 | 46 | 225 | 2.0 | 11.0 | 0.00 | 0.00 | 0.00 | 83 | 1012.1 |
| 20260504220746 | 46 | 223 | 1.0 | 11.0 | 0.00 | 0.00 | 0.00 | 83 | 1012.0 |
| 20260504220245 | 46 | 226 | 2.0 | 11.0 | 0.00 | 0.00 | 0.00 | 83 | 1012.0 |
| 20260504215745 | 46 | 231 | 2.0 | 11.0 | 0.00 | 0.00 | 0.10 | 83 | 1012.1 |
| 20260504215245 | 46 | 207 | 2.0 | 11.0 | 0.00 | 0.00 | 0.10 | 83 | 1012.4 |
| 20260504214745 | 45 | 195 | 3.0 | 11.0 | 0.00 | 0.00 | 0.10 | 83 | 1012.3 |
| 20260504214245 | 46 | 181 | 1.0 | 11.0 | 0.00 | 0.00 | 0.10 | 83 | 1012.0 |
| 20260504213744 | 46 | 197 | 2.0 | 11.0 | 0.00 | 0.00 | 0.10 | 82 | 1012.6 |
| 20260504213243 | 46 | 209 | 1.0 | 11.0 | 0.00 | 0.00 | 0.10 | 82 | 1011.8 |
| 20260504212227 | 46 | 212 | 0.0 | 11.0 | 0.00 | 0.00 | 0.10 | 81 | 1011.9 |
| 20260504211726 | 46 | 219 | 2.0 | 11.0 | 0.00 | 0.00 | 0.10 | 81 | 1011.9 |
| 20260504211226 | 46 | 215 | 1.0 | 11.0 | 0.00 | 0.00 | 0.10 | 80 | 1012.4 |
| 20260504210726 | 46 | 234 | 2.0 | 11.0 | 0.00 | 0.00 | 0.10 | 80 | 1012.0 |
| 20260504210226 | 47 | 206 | 2.0 | 11.0 | 0.00 | 0.00 | 0.10 | 79 | 1012.0 |
| 20260504205726 | 47 | 214 | 1.0 | 11.0 | 0.00 | 0.00 | 0.10 | 79 | 1011.8 |
| 20260504205226 | 47 | 167 | 1.0 | 11.0 | 0.00 | 0.00 | 0.10 | 78 | 1012.2 |
| 20260504204725 | 47 | 216 | 2.0 | 11.0 | 0.00 | 0.00 | 0.10 | 78 | 1012.2 |
| 20260504204224 | 47 | 224 | 2.0 | 11.0 | 0.00 | 0.00 | 0.10 | 77 | 1011.8 |
| 20260504203724 | 47 | 230 | 1.0 | 11.0 | 0.00 | 0.00 | 0.10 | 76 | 1012.0 |
| 20260504203224 | 48 | 229 | 2.0 | 11.0 | 0.00 | 0.00 | 0.10 | 76 | 1012.1 |
| 20260504202723 | 48 | 201 | 3.0 | 11.0 | 0.00 | 0.00 | 0.10 | 75 | 1012.2 |
| 20260504202223 | 48 | 229 | 2.0 | 11.0 | 0.00 | 0.00 | 0.10 | 74 | 1011.9 |
| 20260504201723 | 48 | 210 | 1.0 | 11.0 | 0.00 | 0.00 | 0.10 | 73 | 1012.2 |
| 20260504201222 | 48 | 232 | 3.0 | 11.0 | 0.00 | 0.00 | 0.10 | 72 | 1012.0 |
| 20260504200722 | 48 | 235 | 2.0 | 11.0 | 0.00 | 0.00 | 0.10 | 71 | 1011.6 |
| 20260504200222 | 48 | 216 | 2.0 | 11.0 | 0.00 | 0.00 | 0.10 | 68 | 1011.9 |
| 20260504195721 | 48 | 190 | 1.0 | 11.0 | 0.00 | 0.00 | 0.10 | 67 | 1011.7 |
| 20260504194706 | 49 | 205 | 2.0 | 11.0 | 0.00 | 0.00 | 0.10 | 64 | 1011.5 |
| 20260504194205 | 49 | 230 | 2.0 | 11.0 | 0.00 | 0.00 | 0.10 | 63 | 1011.8 |
| 20260504193148 | 49 | 234 | 1.0 | 11.0 | 0.00 | 0.00 | 0.10 | 62 | 1011.4 |
| 20260504192648 | 49 | 227 | 1.0 | 11.0 | 0.00 | 0.00 | 0.10 | 61 | 1011.7 |
| 20260504192147 | 50 | 247 | 0.0 | 11.0 | 0.00 | 0.00 | 0.10 | 60 | 1011.9 |
| 20260504191645 | 50 | 195 | 1.0 | 11.0 | 0.00 | 0.00 | 0.10 | 59 | 1011.4 |
| 20260504190629 | 50 | 177 | 1.0 | 11.0 | 0.00 | 0.00 | 0.10 | 58 | 1011.8 |
| 20260504190129 | 51 | 185 | 1.0 | 11.0 | 0.00 | 0.00 | 0.10 | 58 | 1011.8 |
| 20260504185629 | 51 | 208 | 1.0 | 11.0 | 0.00 | 0.00 | 0.10 | 57 | 1011.7 |
| 20260504185129 | 51 | 179 | 1.0 | 11.0 | 0.00 | 0.00 | 0.10 | 56 | 1011.6 |
| 20260504184113 | 52 | 201 | 1.0 | 11.0 | 0.00 | 0.00 | 0.10 | 53 | 1011.3 |
| 20260504183613 | 52 | 195 | 2.0 | 11.0 | 0.00 | 0.00 | 0.10 | 52 | 1011.4 |
| 20260504183112 | 52 | 218 | 2.0 | 11.0 | 0.00 | 0.00 | 0.10 | 51 | 1011.5 |
| 20260504182612 | 52 | 200 | 2.0 | 11.0 | 0.00 | 0.00 | 0.10 | 51 | 1011.6 |
| 20260504182112 | 53 | 223 | 1.0 | 11.0 | 0.00 | 0.00 | 0.10 | 50 | 1011.1 |
| 20260504181612 | 53 | 232 | 2.0 | 11.0 | 0.00 | 0.00 | 0.10 | 50 | 1011.3 |
| 20260504180556 | 54 | 229 | 1.0 | 11.0 | 0.00 | 0.00 | 0.10 | 49 | 1011.0 |
| 20260504175024 | 55 | 216 | 1.0 | 11.0 | 0.00 | 0.00 | 0.10 | 51 | 1011.1 |
| 20260504174523 | 55 | 191 | 1.0 | 11.0 | 0.00 | 0.00 | 0.10 | 51 | 1011.1 |
| 20260504174022 | 55 | 224 | 3.0 | 11.0 | 0.00 | 0.00 | 0.10 | 50 | 1011.0 |
| 20260504173006 | 55 | 228 | 1.0 | 11.0 | 0.00 | 0.00 | 0.10 | 46 | 1010.9 |
| 20260504172506 | 55 | 234 | 3.0 | 11.0 | 0.00 | 0.00 | 0.10 | 45 | 1010.9 |
| 20260504172006 | 56 | 237 | 2.0 | 11.0 | 0.00 | 0.00 | 0.10 | 44 | 1010.9 |
| 20260504171506 | 56 | 213 | 2.0 | 11.0 | 0.00 | 0.00 | 0.10 | 43 | 1010.8 |
| 20260504171005 | 56 | 234 | 2.0 | 11.0 | 0.00 | 0.00 | 0.10 | 43 | 1010.7 |
| 20260504170504 | 56 | 233 | 3.0 | 11.0 | 0.00 | 0.00 | 0.10 | 41 | 1011.1 |
| 20260504160428 | 58 | 221 | 5.0 | 12.0 | 0.00 | 0.00 | 0.10 | 34 | 1010.7 |
| 20260504150839 | 60 | 221 | 4.0 | 13.0 | 0.00 | 0.00 | 0.10 | 39 | 1010.2 |
| 20260504150339 | 59 | 231 | 4.0 | 13.0 | 0.00 | 0.00 | 0.10 | 39 | 1010.4 |
| 20260504140821 | 61 | 230 | 2.0 | 11.0 | 0.00 | 0.00 | 0.10 | 41 | 1009.7 |
| 20260504140320 | 60 | 240 | 2.0 | 11.0 | 0.00 | 0.00 | 0.10 | 42 | 1010.4 |
| 20260504130257 | 60 | 230 | 4.0 | 13.0 | 0.00 | 0.00 | 0.10 | 48 | 1009.9 |
| 20260504120209 | 59 | 240 | 3.0 | 12.0 | 0.00 | 0.00 | 0.10 | 48 | 1009.2 |
| 20260504110647 | 58 | 192 | 5.0 | 11.0 | 0.00 | 0.00 | 0.10 | 47 | 1008.8 |
| 20260504110146 | 58 | 206 | 5.0 | 12.0 | 0.00 | 0.00 | 0.10 | 46 | 1009.4 |
| 20260504080958 | 52 | 211 | 2.0 | 14.0 | 0.00 | 0.00 | 0.10 | 93 | 1009.0 |
| 20260504080457 | 52 | 207 | 1.0 | 14.0 | 0.00 | 0.00 | 0.10 | 94 | 1008.7 |
| 20260504050724 | 49 | 334 | 0.0 | 14.0 | 0.00 | 0.00 | 0.10 | 96 | 1007.9 |
| 20260504050223 | 48 | 334 | 0.0 | 14.0 | 0.00 | 0.00 | 0.10 | 96 | 1007.7 |
| 20260504045723 | 48 | 334 | 0.0 | 14.0 | 0.00 | 0.00 | 0.10 | 96 | 1007.9 |
| 20260504045223 | 48 | 334 | 0.0 | 14.0 | 0.00 | 0.00 | 0.10 | 96 | 1007.9 |
| 20260504044723 | 48 | 334 | 0.0 | 14.0 | 0.00 | 0.00 | 0.10 | 96 | 1007.9 |
| 20260504044223 | 48 | 334 | 0.0 | 14.0 | 0.00 | 0.00 | 0.10 | 96 | 1007.8 |
| 20260504043721 | 48 | 334 | 0.0 | 14.0 | 0.00 | 0.00 | 0.10 | 96 | 1007.8 |
| 20260504043220 | 48 | 334 | 0.0 | 14.0 | 0.00 | 0.00 | 0.10 | 96 | 1008.3 |
| 20260504042720 | 48 | 334 | 0.0 | 14.0 | 0.00 | 0.00 | 0.10 | 96 | 1008.1 |
| 20260504042220 | 48 | 334 | 0.0 | 14.0 | 0.00 | 0.00 | 0.10 | 96 | 1008.1 |
| 20260504041720 | 48 | 334 | 0.0 | 14.0 | 0.00 | 0.00 | 0.10 | 96 | 1008.3 |
| 20260504041219 | 48 | 334 | 0.0 | 14.0 | 0.00 | 0.00 | 0.10 | 96 | 1008.1 |
| 20260504040719 | 48 | 334 | 0.0 | 14.0 | 0.00 | 0.00 | 0.10 | 96 | 1008.2 |
| 20260504040219 | 48 | 334 | 0.0 | 14.0 | 0.00 | 0.00 | 0.10 | 96 | 1008.2 |
| 20260504035203 | 48 | 334 | 0.0 | 14.0 | 0.00 | 0.00 | 0.10 | 96 | 1008.2 |
| 20260504034703 | 48 | 334 | 0.0 | 14.0 | 0.00 | 0.00 | 0.10 | 96 | 1008.4 |
| 20260504033647 | 48 | 334 | 0.0 | 14.0 | 0.02 | 0.00 | 0.10 | 96 | 1008.4 |
| 20260504033146 | 48 | 334 | 0.0 | 14.0 | 0.02 | 0.00 | 0.10 | 96 | 1008.4 |
| 20260504032645 | 48 | 334 | 0.0 | 14.0 | 0.02 | 0.00 | 0.10 | 96 | 1008.4 |
| 20260504032144 | 48 | 334 | 0.0 | 14.0 | 0.02 | 0.00 | 0.10 | 96 | 1008.3 |
| 20260504031643 | 48 | 334 | 0.0 | 14.0 | 0.02 | 0.00 | 0.10 | 95 | 1008.2 |
| 20260504031142 | 48 | 334 | 0.0 | 14.0 | 0.02 | 0.00 | 0.09 | 96 | 1008.3 |
| 20260504030641 | 48 | 334 | 0.0 | 14.0 | 0.02 | 0.00 | 0.09 | 96 | 1008.4 |
| 20260504030141 | 48 | 334 | 0.0 | 14.0 | 0.02 | 0.00 | 0.09 | 96 | 1008.5 |
| 20260504025126 | 49 | 334 | 0.0 | 14.0 | 0.03 | 0.00 | 0.09 | 96 | 1008.5 |
| 20260504024626 | 49 | 334 | 0.0 | 14.0 | 0.03 | 0.00 | 0.09 | 96 | 1008.3 |
| 20260504024126 | 49 | 334 | 0.0 | 14.0 | 0.01 | 0.00 | 0.07 | 96 | 1008.4 |
| 20260504023626 | 49 | 334 | 0.0 | 14.0 | 0.01 | 0.00 | 0.07 | 96 | 1008.5 |
| 20260504023126 | 49 | 334 | 0.0 | 14.0 | 0.02 | 0.00 | 0.07 | 96 | 1008.2 |
| 20260504022625 | 49 | 334 | 0.0 | 14.0 | 0.02 | 0.00 | 0.07 | 96 | 1008.7 |
| 20260504022125 | 49 | 334 | 0.0 | 14.0 | 0.03 | 0.00 | 0.07 | 96 | 1008.4 |
| 20260504021625 | 49 | 334 | 0.0 | 14.0 | 0.03 | 0.00 | 0.07 | 96 | 1008.5 |
| 20260504021124 | 49 | 334 | 0.0 | 14.0 | 0.02 | 0.00 | 0.06 | 96 | 1008.7 |
| 20260504020624 | 49 | 334 | 0.0 | 14.0 | 0.02 | 0.00 | 0.06 | 96 | 1008.6 |
| 20260504020123 | 49 | 334 | 0.0 | 14.0 | 0.03 | 0.00 | 0.06 | 96 | 1008.5 |
| 20260504015622 | 49 | 334 | 0.0 | 14.0 | 0.03 | 0.00 | 0.06 | 96 | 1008.5 |
| 20260504015121 | 49 | 334 | 0.0 | 14.0 | 0.03 | 0.00 | 0.06 | 95 | 1008.5 |
| 20260504014621 | 49 | 334 | 0.0 | 14.0 | 0.02 | 0.00 | 0.06 | 95 | 1008.5 |
| 20260504014121 | 49 | 334 | 0.0 | 14.0 | 0.02 | 0.00 | 0.06 | 95 | 1008.6 |
| 20260504013621 | 49 | 334 | 0.0 | 14.0 | 0.02 | 0.00 | 0.06 | 95 | 1008.8 |
| 20260504012605 | 49 | 334 | 0.0 | 14.0 | 0.03 | 0.00 | 0.05 | 95 | 1008.7 |
| 20260504012104 | 49 | 334 | 0.0 | 14.0 | 0.02 | 0.00 | 0.04 | 95 | 1008.9 |
| 20260504011604 | 49 | 334 | 0.0 | 14.0 | 0.02 | 0.00 | 0.04 | 95 | 1009.3 |
| 20260504011104 | 49 | 334 | 0.0 | 14.0 | 0.02 | 0.00 | 0.04 | 95 | 1009.0 |
| 20260504010049 | 49 | 334 | 0.0 | 14.0 | 0.02 | 0.00 | 0.03 | 95 | 1009.1 |
| 20260504005549 | 49 | 334 | 0.0 | 14.0 | 0.02 | 0.00 | 0.03 | 95 | 1009.3 |
| 20260504005049 | 49 | 334 | 0.0 | 14.0 | 0.03 | 0.00 | 0.03 | 95 | 1009.4 |
| 20260504003518 | 49 | 334 | 0.0 | 14.0 | 0.03 | 0.00 | 0.03 | 95 | 1009.2 |
| 20260504003018 | 49 | 334 | 0.0 | 14.0 | 0.03 | 0.00 | 0.03 | 95 | 1009.5 |
| 20260504002517 | 49 | 334 | 0.0 | 14.0 | 0.03 | 0.00 | 0.03 | 95 | 1009.4 |
| 20260504002017 | 49 | 334 | 0.0 | 14.0 | 0.01 | 0.00 | 0.01 | 94 | 1009.6 |
| 20260504001517 | 49 | 334 | 0.0 | 14.0 | 0.01 | 0.00 | 0.01 | 94 | 1009.7 |
| 20260504001016 | 49 | 334 | 0.0 | 14.0 | 0.01 | 0.00 | 0.01 | 94 | 1009.2 |
| 20260504000515 | 49 | 334 | 0.0 | 14.0 | 0.00 | 0.00 | 0.00 | 94 | 1009.7 |
| 20260504000014 | 49 | 334 | 0.0 | 14.0 | 0.00 | 0.00 | 0.00 | 94 | 1009.6 |
| 20260503235513 | 49 | 334 | 0.0 | 14.0 | 0.00 | 0.00 | 0.00 | 94 | 1009.8 |
| 20260503235012 | 49 | 334 | 0.0 | 14.0 | 0.00 | 0.00 | 0.00 | 94 | 1010.3 |
| 20260503234512 | 49 | 334 | 0.0 | 14.0 | 0.00 | 0.00 | 0.00 | 94 | 1010.4 |
| 20260503234012 | 49 | 334 | 0.0 | 14.0 | 0.00 | 0.00 | 0.00 | 94 | 1010.0 |
| 20260503233512 | 49 | 334 | 0.0 | 14.0 | 0.00 | 0.00 | 0.00 | 94 | 1009.9 |
| 20260503233011 | 49 | 334 | 0.0 | 14.0 | 0.00 | 0.00 | 0.00 | 93 | 1010.1 |
| 20260503232511 | 49 | 334 | 0.0 | 14.0 | 0.00 | 0.00 | 0.00 | 93 | 1009.8 |
| 20260503232010 | 49 | 334 | 0.0 | 14.0 | 0.00 | 0.00 | 0.00 | 93 | 1009.6 |